Home   Weather   Paros   Past weeks
Flag for Greece

Past Weather in Paros, Greece — Yesterday and Last 2 Weeks

Now
66 °F

Mild.


Feels Like: 66 °F
Forecast: 71 / 65 °F
Wind: 17 mph from Northeast

Location: Paros Community Airport

Current Time: Oct 24, 2019 at 7:36:43 am

Latest Report: Oct 24, 2019 at 6:20 am


Visibility: N/A

Pressure: 29.98 "Hg

Humidity: 78%

Dew Point: 59 °F

Location of ParosLocation

Past Weather in Paros — Graph

°F

Paros Temperature Yesterday

Maximum temperature yesterday: 73 °F (at 12:50 pm)
Minimum temperature yesterday: 66 °F (at 6:50 pm)
Average temperature yesterday: 69 °F

High & Low Weather Summary for the Past Weeks

 TemperatureHumidityPressure
High81 °F (Oct 11, 3:50 pm)100% (Oct 12, 4:20 am)30.18 "Hg (Oct 12, 4:20 am)
Low61 °F (Oct 10, 5:20 am)46% (Oct 13, 2:50 am)29.98 "Hg (Oct 15, 4:50 pm)
Average69 °F75%30.06 "Hg
* Reported Oct 9 6:50 am — Oct 24 6:20 am, Paros. Weather by CustomWeather, © 2019

Note: Actual official high and low records may vary slightly from our data, if they occured in-between our weather recording intervals... More about our weather records

Advertising

Paros Weather History for the Previous 24 Hours

Scroll right to see more
 ConditionsComfort  
Time TempWeatherWind HumidityBarometerVisibility
6:20 am
Thu, Oct 24
66 °FMild.17 mph78%29.98 "HgN/A
5:50 am66 °FMild.20 mph78%29.98 "HgN/A
5:20 am66 °FMild.21 mph78%29.98 "HgN/A
4:50 am68 °FMild.18 mph73%29.98 "HgN/A
4:20 am68 °FMild.15 mph73%29.98 "HgN/A
3:50 am68 °FMild.15 mph73%29.98 "HgN/A
3:20 am68 °FMild.14 mph73%29.98 "HgN/A
2:50 am68 °FMild.12 mph73%29.98 "HgN/A
2:20 am68 °FMild.17 mph73%30.01 "HgN/A
1:50 am68 °FMild.21 mph73%30.01 "HgN/A
1:20 am68 °FMild.17 mph73%30.01 "HgN/A
12:50 am68 °FMild.12 mph78%30.01 "HgN/A
12:20 am68 °FMild.15 mph78%30.01 "HgN/A
11:50 pm
Wed, Oct 23
68 °FMild.10 mph78%30.01 "HgN/A
11:20 pm68 °FMild.12 mph73%30.01 "HgN/A
10:50 pm68 °FMild.17 mph73%30.01 "HgN/A
10:20 pm68 °FMild.16 mph73%30.01 "HgN/A
9:50 pm68 °FMild.17 mph78%30.01 "HgN/A
9:20 pm68 °FMild.20 mph73%30.01 "HgN/A
8:50 pm68 °FMild.16 mph73%30.01 "HgN/A
8:20 pm68 °FMild.22 mph73%30.01 "HgN/A
7:50 pm68 °FMild.20 mph73%30.01 "HgN/A
7:20 pm68 °FMild.22 mph73%30.01 "HgN/A
6:50 pm66 °FMild.22 mph78%30.01 "HgN/A
6:20 pm68 °FMild.22 mph73%29.98 "HgN/A
5:50 pm68 °FMild.22 mph73%29.98 "HgN/A
5:20 pm70 °FMild.21 mph69%30.01 "HgN/A
4:50 pm70 °FScattered clouds.20 mph69%30.01 "HgN/A
3:50 pm72 °FPassing clouds.28 mph69%30.01 "HgN/A
2:50 pm72 °FScattered clouds.28 mph69%29.98 "HgN/A
1:50 pm72 °FScattered clouds.28 mph69%29.98 "HgN/A
12:50 pm73 °FScattered clouds.23 mph69%30.01 "HgN/A
11:50 am72 °FPassing clouds.24 mph69%30.01 "HgN/A
10:50 am70 °FScattered clouds.23 mph73%30.04 "HgN/A
9:50 am70 °FScattered clouds.18 mph73%30.04 "HgN/A
8:50 am68 °FScattered clouds.15 mph78%30.04 "HgN/A
7:50 am68 °FScattered clouds.16 mph78%30.01 "Hg6 mi
7:20 am68 °FMild.16 mph78%30.01 "HgN/A
Weather by CustomWeather, © 2019

See weather overview